Regional Weather Roundup
Issued by NWS Wakefield, VA

Home | Current Version | Previous Version | Graphics & Text | Print | Product List | Glossary On
Versions: 1 2 3 4 5 6 7 8 9 10 11 12 13 14 15 16 17 18 19 20 21 22 23 24 25 26 27 28 29 30 31 32 33 34 35 36 37 38 39 40 41 42 43 44 45 46 47 48 49 50
172
ASUS41 KAKQ 220615
RWRAKQ

REGIONAL WEATHER ROUNDUP
NATIONAL WEATHER SERVICE WAKEFIELD VA
100 AM EST WED NOV 22 2017

Note: "fair" indicates few or no clouds below 12,000 feet with no
significant weather and/or obstructions to visibility. * = Denotes
station may not report precipitation (e.g., rain,snow,etc.),
thunder or fog.

VAZ042-051-052>054-056-220700-
NORTHERN VIRGINIA

CITY           SKY/WX    TMP DP  RH WIND       PRES   REMARKS
WASH NATIONAL  CLOUDY    52  46  80 SW8       29.99F
DULLES         CLOUDY    53  45  74 S12       29.97F
FORT BELVOIR   CLOUDY    49  43  80 CALM      29.99F
QUANTICO       CLOUDY    51  45  79 SW5       30.00F
FREDERICKSBRG* MOCLDY    48  44  88 CALM      29.99F
STAFFORD*      CLOUDY    47  44  90 CALM      30.03F
WARRENTON      NOT AVBL
CULPEPER*      CLOUDY    52  42  67 S3        29.99F
MANASSAS*      CLOUDY    53  44  71 S6        29.98F
LEESBURG*      CLOUDY    50  43  76 S8        29.97F
WINCHESTER     CLOUDY    46  41  81 SW3       29.94F
FRONT ROYAL*   PTCLDY    50  43  76 MISG      29.93F
LURAY*         MOCLDY    52  45  76 SW6       29.95F
$$

VAZ048-049-060>072-079>083-220700-
CENTRAL AND SOUTH CENTRAL VIRGINIA

CITY           SKY/WX    TMP DP  RH WIND       PRES   REMARKS
RICHMOND       CLOUDY    53  50  89 CALM      30.00F
CHESTERFIELD*  NOT AVBL
PETERSBURG*    LGT RAIN  54  43  66 CALM      30.00F
HANOVER        CLOUDY    52  50  93 VRB6      30.01F
TAPPAHANNOCK*    N/A    N/A N/A N/A MISG        N/A
QUINTON*       MOCLDY    53  49  88 W6        30.00F
CHARLOTTSVILLE MOCLDY    51  41  68 S6        29.97F
GORDONSVILLE*  CLOUDY    47  41  81 CALM      29.97F
ORANGE*        CLOUDY    45  39  81 CALM      29.98F
LOUISA*        CLOUDY    49  43  81 SE5       30.02F
BUMPASS*       FAIR      45  43  93 W7        30.00F
FARMVILLE*     CLOUDY    54  49  86 CALM      30.00S
CREWE*         CLOUDY    48  48 100 CALM      29.99F
FORT PICKETT*  NOT AVBL
CHASE CITY*    CLOUDY    50  50 100 W6        30.01S
CLARKSVILLE*   CLOUDY    52  48  87 W5        30.00F
SOUTH HILL*    CLOUDY    51  51 100 S5        30.05F
LAWRENCEVILLE* FAIR      50  49  97 CALM      30.00F
EMPORIA*       CLOUDY    48  48 100 CALM      30.02F
$$

VAZ088>098-220700-
SOUTHEAST VIRGINIA

CITY           SKY/WX    TMP DP  RH WIND       PRES   REMARKS
NORFOLK        CLOUDY    59  56  89 S5        30.00F
VIRGINIA BEACH CLOUDY    61  56  83 SE8       29.99F
NORFOLK NAVAL  CLOUDY    60  54  80 SE6       30.01
WEST POINT*    CLOUDY    57  52  85 S3        30.02F
SALUDA*        CLOUDY    57  57  99 CALM      30.00F
NEWPORT NEWS   CLOUDY    59  52  77 S5        30.00F
LANGLEY AFB    CLOUDY    58  54  86 S3        30.00F
FORT EUSTIS    CLOUDY    58  53  83 SE7       29.97F
WILLIAMSBURG*  CLOUDY    55  52  88 CALM      30.00F
HR EXEC AP*    NOT AVBL
FRANKLIN*      CLOUDY    54  49  83 CALM      30.00F
US460-WAKEFLD  CLOUDY    54  50  86 CALM      30.00F
$$

VAZ020-022-025-037-045-220700-
WEST CENTRAL AND SOUTHWEST VIRGINIA

CITY           SKY/WX    TMP DP  RH WIND       PRES   REMARKS
STAUNTON*      CLOUDY    42  39  91 SW5       29.98F
WAYNESBORO*    MOCLDY    49  45  85 SW3       29.96F
HOT SPRINGS VA CLOUDY    47  38  70 SW13G21   29.97F
LYNCHBURG      LGT RAIN  46  45  96 CALM      30.00F
DANVILLE       CLOUDY    48  48 100 CALM      30.00F
SOUTH BOSTON*  CLOUDY    50  49  95 CALM      30.01F
MARTINSVILLE   CLOUDY    45  45  97 CALM      30.03F
ROANOKE        CLOUDY    46  43  89 CALM      30.01F
BLACKSBURG     PTCLDY    40  39  98 CALM      30.03F
DUBLIN*        CLOUDY    42  42  99 CALM      30.02F
MARION*        CLEAR     38  35  91 CALM      30.03F
HILLSVILLE*    CLOUDY    45  44  96 CALM      30.00F
RICHLANDS*     RAIN      48  21  34 W8        30.02S
WISE*          MOCLDY    46  37  71 W5        30.03F
ABINGDON*      CLOUDY    46  43  88 CALM      30.02S
$$

MDZ021>025-VAZ099-100-220700-
SOUTHERN MARYLAND AND THE DELMARVA PENINSULA

CITY           SKY/WX    TMP DP  RH WIND       PRES   REMARKS
PATUXENT RIVER LGT RAIN  54  52  93 SW7       30.00F
BAY BRIDGE APT CLOUDY    52  48  87 SE5       30.00F
LEONARDTOWN    CLOUDY    52  50  93 CALM      30.02F
DOVER          CLOUDY    53  53 100 SW3       29.99F
GEORGETOWN     CLOUDY    59  51  75 S7        30.00F
EASTON         CLOUDY    57  51  81 SW7       30.04F
CAMBRIDGE      MOCLDY    54  52  94 S7G13     30.01F FOG
SALISBURY      CLOUDY    58  53  84 S7        30.00F
OCEAN CITY     CLOUDY    57  54  89 SW5       30.02F
WALLOPS ISLAND CLOUDY    59  56  89 S8        30.02F
ACCOMACK*      CLOUDY    60  56  85 SE7       30.01F
$$

NCZ012>017-030>032-220700-
NORTH CENTRAL AND EASTERN NORTH CAROLINA

CITY           SKY/WX    TMP DP  RH WIND       PRES   REMARKS
ROANOKE RAPIDS MOCLDY    52  52 100 CALM      30.00F
RALEIGH        CLOUDY    53  49  86 CALM      29.99F
ELIZABETH CITY CLOUDY    61  58  90 SE8       30.00F
AHOSKIE*       CLOUDY    52  49  90 CALM      30.01F
EDENTON*       CLOUDY    55  51  89 CALM      30.01F
CURRITUCK*     CLOUDY    61  58  89 CALM      30.01F
KILL DEVIL HLS CLOUDY    60  59  96 CALM      30.01F
MANTEO         LGT RAIN  59  57  94 CALM      30.02F
CAPE HATTERAS  CLOUDY    66  63  90 SE12      29.98F
TARBORO*       NOT AVBL
GOLDSBORO      CLOUDY    55  51  87 NE3       29.96F
WASHINGTON     DRIZZLE   54  52  93 CALM      30.00F
GREENVILLE     CLOUDY    54  52  94 CALM      30.01F
NEW BERN       LGT RAIN  55  55 100 N3        29.98F
WILMINGTON     LGT RAIN  62  61  96 CALM      29.96F
$$

VAZ048-220700-
ELSEWHERE

CITY           SKY/WX    TMP DP  RH WIND       PRES   REMARKS
HARRISBURG PA  MOCLDY    37  33  85 E5        29.94F
BALTIMORE      CLOUDY    53  45  74 S6        29.97F
ANNAPOLIS      MOCLDY    55  49  80 S5        29.98F
ANDREWS AFB    MOCLDY    54  44  69 S12       29.98F
PHILADELPHIA   CLOUDY    54  44  69 S7        29.99F
GREENSBORO     CLOUDY    49  49 100 CALM      30.00F
ROCKY MOUNT    CLOUDY    53  52  96 CALM      29.99F
$$

VAZ100-220700-
MARINE

STATION/POSITION TIME  TEMP    WIND        PRES    WAVE   SWELL
                       AIR SEA DIR/SP/G            HT/PER HT/PER
                 (UTC) (F)     (DEG/KT/KT) (MB)    (FT/S) (FT/S)
BRANDYWINE LGT   0542   59     200/ 15/ 15 1016.3F
CAPE MAY NJ      0542   58 49  180/ 10/ 16 1015.8F
LEWES DE         0542   61 52  200/  7/ 13 1016.1F
15NM E FENWICK I 0550   61 58  160/ 14/ 16 1017.0F   2/ 4
OCEAN-CITY-INLET 0542   55 54  220/  5/  5 1017.1F
WACHAPREAGUE VA  0542   57 51  230/  2/  4 1016.3F
THOMAS POINT MD  0600   54 53  180/ 11/ 13   N/A
GOOSES REEF MD   0550   55     200/  8/ 10 1015.8F
COVE POINT MD    0542   54     200/ 13/ 16 1016.8F
SOLOMONS ISLAND  0542   54 53  240/  4/  5 1015.8F
BISHOPS HEAD MD  0542   53 49  170/ 10/ 11 1016.1F
PINEY POINT MD   0548          350/  5/  6   N/A
POTOMAC MD       0550   57     190/  8/ 12 1015.3F
CAMBRIDGE MD     0542   55 50              1017.1F
LEWISETTA VA     0542   57 50  300/  4/  5 1016.0F
RAPPAHANNOCK LGT 0548          140/ 10/ 12 1016.4F
STINGRAY PT      0550   56     200/  8/ 10 1016.1F
YORK RVR RNG VA  0536   55     180/  9/  9 1016.5F
YORKTOWN VA      0536   59 54  170/  7/  9 1015.6F
JAMESTOWN VA     0550           30/  4/  4   N/A
DOMINION TERM VA 0536   57     120/  4/  4 1016.1F
KIPTOPEKE VA     0536      54  150/ 13/ 15   N/A
CAPE HENRY VA    0536   61     150/ 10/ 14   N/A
WILLOUBY STN VA  0536   60     140/ 11/ 12 1015.7F
S CRANEY ISL VA  0536   57     170/  7/  8 1015.9F
CAPE HENRY BUOY  0600      56                N/A     2/ 4
1ST LANDING BUOY 0550   58     160/  6/  6 1016.0F
CAPE CHARLES BUO 0551      56                N/A     2/ 4
64NM E OF VA BCH 0550   66 64  180/  2/  4 1017.4F   2/ 6   2/ 6
DUCK PIER NC     0536   62 60  140/  9/ 11 1016.0F
44100 DUCK FRF   0545      61                N/A     2/ 7
44056 DUCK FRF   0600      61                N/A     2/12
OREGON INLET NC  0536   60 54  100/  2/  3 1016.3F
HATTERAS NC      0536   67 59  130/  6/ 11 1015.3F
DIAMOND SHLS NC  0600   72 75  130/ 19/ 25 1015.0
CAPE LOOKOUT NC  0600           70/  6/  7 1014.3F
$$




USA.gov is the U.S. government's official web portal to all federal, state and local government web resources and services.